SAOCOM 1A

Last updated on Fri Dec 19 2025 00:02:17 GMT+0000 (Coordinated Universal Time)

1 43641U 18076A 25352.61280051 .00000637 00000+0 86510-4 0 9999 2 43641 97.8839 176.9487 0001448 80.6550 279.4827 14.82164845389357
UTC large
Height (km)
Speed (km/s)
/
Latitude / Longitude
Inclination (degrees)
Orbital Period (minutes)
Azimuth
Elevation
Range (km)
Doppler Factor

Next 0 passes for location: London (51.5072 / 0.1276)

Sorry there are no passes over London.